Year,Month,Day,Hour,Minute,Value (Times are PST for temperature in C)
2013,05,22,00,00,8.20
2013,05,22,00,01,8.20
2013,05,22,00,02,8.30
2013,05,22,00,03,8.30
2013,05,22,00,04,8.30
2013,05,22,00,05,8.30
2013,05,22,00,06,8.30
2013,05,22,00,07,8.30
2013,05,22,00,08,8.30
2013,05,22,00,09,8.30
2013,05,22,00,10,8.30
2013,05,22,00,11,8.30
2013,05,22,00,12,8.30
2013,05,22,00,13,8.30
2013,05,22,00,14,8.30
2013,05,22,00,15,8.30
2013,05,22,00,16,8.30
2013,05,22,00,17,8.30
2013,05,22,00,18,8.30
2013,05,22,00,19,8.30
2013,05,22,00,20,8.30
2013,05,22,00,21,8.30
2013,05,22,00,22,8.30
2013,05,22,00,23,8.30
2013,05,22,00,24,8.30
2013,05,22,00,25,8.30
2013,05,22,00,26,8.30
2013,05,22,00,27,8.30
2013,05,22,00,28,8.30
2013,05,22,00,29,8.30
2013,05,22,00,30,8.40
2013,05,22,00,31,8.40
2013,05,22,00,32,8.40
2013,05,22,00,33,8.40
2013,05,22,00,34,8.40
2013,05,22,00,35,8.40
2013,05,22,00,36,8.40
2013,05,22,00,37,8.40
2013,05,22,00,38,8.40
2013,05,22,00,39,8.40
2013,05,22,00,40,8.50
2013,05,22,00,41,8.50
2013,05,22,00,42,8.50
2013,05,22,00,43,8.50
2013,05,22,00,44,8.50
2013,05,22,00,45,8.50
2013,05,22,00,46,8.50
2013,05,22,00,47,8.50
2013,05,22,00,48,8.50
2013,05,22,00,49,8.50
2013,05,22,00,50,8.50
2013,05,22,00,51,8.50
2013,05,22,00,52,8.50
2013,05,22,00,53,8.50
2013,05,22,00,54,8.50
2013,05,22,00,55,8.50
2013,05,22,00,56,8.50
2013,05,22,00,57,8.50
2013,05,22,00,58,8.50
2013,05,22,00,59,8.50
2013,05,22,01,00,8.50
2013,05,22,01,01,8.50
2013,05,22,01,02,8.50
2013,05,22,01,03,8.50
2013,05,22,01,04,8.50
2013,05,22,01,05,8.50
2013,05,22,01,06,8.50
2013,05,22,01,07,8.50
2013,05,22,01,08,8.40
2013,05,22,01,09,8.40
2013,05,22,01,10,8.40
2013,05,22,01,11,8.40
2013,05,22,01,12,8.40
2013,05,22,01,13,8.40
2013,05,22,01,14,8.40
2013,05,22,01,15,8.40
2013,05,22,01,16,8.40
2013,05,22,01,17,8.40
2013,05,22,01,18,8.40
2013,05,22,01,19,8.40
2013,05,22,01,20,8.40
2013,05,22,01,21,8.40
2013,05,22,01,22,8.40
2013,05,22,01,23,8.40
2013,05,22,01,24,8.40
2013,05,22,01,25,8.40
2013,05,22,01,26,8.40
2013,05,22,01,27,8.40
2013,05,22,01,28,8.40
2013,05,22,01,29,8.40
2013,05,22,01,30,8.40
2013,05,22,01,31,8.40
2013,05,22,01,32,8.40
2013,05,22,01,33,8.40
2013,05,22,01,34,8.30
2013,05,22,01,35,8.40
2013,05,22,01,36,8.40
2013,05,22,01,37,8.40
2013,05,22,01,38,8.30
2013,05,22,01,39,8.30
2013,05,22,01,40,8.30
2013,05,22,01,41,8.30
2013,05,22,01,42,8.30
2013,05,22,01,43,8.30
2013,05,22,01,44,8.30
2013,05,22,01,45,8.30
2013,05,22,01,46,8.30
2013,05,22,01,47,8.30
2013,05,22,01,48,8.30
2013,05,22,01,49,8.30
2013,05,22,01,50,8.30
2013,05,22,01,51,8.30
2013,05,22,01,52,8.30
2013,05,22,01,53,8.30
2013,05,22,01,54,8.30
2013,05,22,01,55,8.30
2013,05,22,01,56,8.30
2013,05,22,01,57,8.30
2013,05,22,01,58,8.30
2013,05,22,01,59,8.30
2013,05,22,02,00,8.30
2013,05,22,02,01,8.30
2013,05,22,02,02,8.30
2013,05,22,02,03,8.30
2013,05,22,02,04,8.30
2013,05,22,02,05,8.30
2013,05,22,02,06,8.30
2013,05,22,02,07,8.30
2013,05,22,02,08,8.30
2013,05,22,02,09,8.30
2013,05,22,02,10,8.30
2013,05,22,02,11,8.30
2013,05,22,02,12,8.30
2013,05,22,02,13,8.30
2013,05,22,02,14,8.30
2013,05,22,02,15,8.30
2013,05,22,02,16,8.20
2013,05,22,02,17,8.20
2013,05,22,02,18,8.20
2013,05,22,02,19,8.20
2013,05,22,02,20,8.20
2013,05,22,02,21,8.20
2013,05,22,02,22,8.20
2013,05,22,02,23,8.20
2013,05,22,02,24,8.20
2013,05,22,02,25,8.20
2013,05,22,02,26,8.20
2013,05,22,02,27,8.20
2013,05,22,02,28,8.20
2013,05,22,02,29,8.20
2013,05,22,02,30,8.20
2013,05,22,02,31,8.20
2013,05,22,02,32,8.20
2013,05,22,02,33,8.20
2013,05,22,02,34,8.20
2013,05,22,02,35,8.20
2013,05,22,02,36,8.20
2013,05,22,02,37,8.10
2013,05,22,02,38,8.10
2013,05,22,02,39,8.10
2013,05,22,02,40,8.10
2013,05,22,02,41,8.10
2013,05,22,02,42,8.10
2013,05,22,02,43,8.10
2013,05,22,02,44,8.10
2013,05,22,02,45,8.10
2013,05,22,02,46,8.20
2013,05,22,02,47,8.20
2013,05,22,02,48,8.20
2013,05,22,02,49,8.20
2013,05,22,02,50,8.20
2013,05,22,02,51,8.20
2013,05,22,02,52,8.20
2013,05,22,02,53,8.20
2013,05,22,02,54,8.20
2013,05,22,02,55,8.20
2013,05,22,02,56,8.20
2013,05,22,02,57,8.20
2013,05,22,02,58,8.20
2013,05,22,02,59,8.20
2013,05,22,03,00,8.20
2013,05,22,03,01,8.20
2013,05,22,03,02,8.20
2013,05,22,03,03,8.20
2013,05,22,03,04,8.20
2013,05,22,03,05,8.20
2013,05,22,03,06,8.20
2013,05,22,03,07,8.20
2013,05,22,03,08,8.20
2013,05,22,03,09,8.20
2013,05,22,03,10,8.20
2013,05,22,03,11,8.20
2013,05,22,03,12,8.20
2013,05,22,03,13,8.20
2013,05,22,03,14,8.20
2013,05,22,03,15,8.20
2013,05,22,03,16,8.10
2013,05,22,03,17,8.10
2013,05,22,03,18,8.10
2013,05,22,03,19,8.10
2013,05,22,03,20,8.10
2013,05,22,03,21,8.10
2013,05,22,03,22,8.10
2013,05,22,03,23,8.10
2013,05,22,03,24,8.00
2013,05,22,03,25,8.00
2013,05,22,03,26,8.00
2013,05,22,03,27,8.00
2013,05,22,03,28,8.00
2013,05,22,03,29,8.00
2013,05,22,03,30,8.00
2013,05,22,03,31,8.00
2013,05,22,03,32,8.00
2013,05,22,03,33,8.00
2013,05,22,03,34,8.00
2013,05,22,03,35,8.00
2013,05,22,03,36,8.00
2013,05,22,03,37,8.00
2013,05,22,03,38,8.00
2013,05,22,03,39,8.00
2013,05,22,03,40,8.00
2013,05,22,03,41,8.00
2013,05,22,03,42,8.00
2013,05,22,03,43,8.00
2013,05,22,03,44,8.00
2013,05,22,03,45,8.00
2013,05,22,03,46,8.00
2013,05,22,03,47,8.00
2013,05,22,03,48,8.00
2013,05,22,03,49,8.00
2013,05,22,03,50,8.00
2013,05,22,03,51,8.00
2013,05,22,03,52,8.00
2013,05,22,03,53,8.00
2013,05,22,03,54,8.00
2013,05,22,03,55,8.00
2013,05,22,03,56,7.90
2013,05,22,03,57,7.90
2013,05,22,03,58,7.90
2013,05,22,03,59,7.90
2013,05,22,04,00,7.90
2013,05,22,04,01,7.90
2013,05,22,04,02,7.90
2013,05,22,04,03,7.80
2013,05,22,04,04,7.80
2013,05,22,04,05,7.80
2013,05,22,04,06,7.80
2013,05,22,04,07,7.80
2013,05,22,04,08,7.80
2013,05,22,04,09,7.80
2013,05,22,04,10,7.80
2013,05,22,04,11,7.80
2013,05,22,04,12,7.80
2013,05,22,04,13,7.80
2013,05,22,04,14,7.80
2013,05,22,04,15,7.80
2013,05,22,04,16,7.80
2013,05,22,04,17,7.80
2013,05,22,04,18,7.80
2013,05,22,04,19,7.80
2013,05,22,04,20,7.80
2013,05,22,04,21,7.80
2013,05,22,04,22,7.80
2013,05,22,04,23,7.80
2013,05,22,04,24,7.80
2013,05,22,04,25,7.80
2013,05,22,04,26,7.80
2013,05,22,04,27,7.80
2013,05,22,04,28,7.80
2013,05,22,04,29,7.80
2013,05,22,04,30,7.80
2013,05,22,04,31,7.80
2013,05,22,04,32,7.80
2013,05,22,04,33,7.80
2013,05,22,04,34,7.80
2013,05,22,04,35,7.70
2013,05,22,04,36,7.70
2013,05,22,04,37,7.70
2013,05,22,04,38,7.70
2013,05,22,04,39,7.70
2013,05,22,04,40,7.70
2013,05,22,04,41,7.70
2013,05,22,04,42,7.60
2013,05,22,04,43,7.60
2013,05,22,04,44,7.60
2013,05,22,04,45,7.60
2013,05,22,04,46,7.60
2013,05,22,04,47,7.60
2013,05,22,04,48,7.60
2013,05,22,04,49,7.60
2013,05,22,04,50,7.60
2013,05,22,04,51,7.60
2013,05,22,04,52,7.60
2013,05,22,04,53,7.60
2013,05,22,04,54,7.50
2013,05,22,04,55,7.50
2013,05,22,04,56,7.50
2013,05,22,04,57,7.50
2013,05,22,04,58,7.50
2013,05,22,04,59,7.50
2013,05,22,05,00,7.50
2013,05,22,05,01,7.50
2013,05,22,05,02,7.40
2013,05,22,05,03,7.40
2013,05,22,05,04,7.40
2013,05,22,05,05,7.40
2013,05,22,05,06,7.40
2013,05,22,05,07,7.40
2013,05,22,05,08,7.40
2013,05,22,05,09,7.40
2013,05,22,05,10,7.40
2013,05,22,05,11,7.40
2013,05,22,05,12,7.40
2013,05,22,05,13,7.40
2013,05,22,05,14,7.40
2013,05,22,05,15,7.40
2013,05,22,05,16,7.40
2013,05,22,05,17,7.40
2013,05,22,05,18,7.40
2013,05,22,05,19,7.40
2013,05,22,05,20,7.40
2013,05,22,05,21,7.40
2013,05,22,05,22,7.40
2013,05,22,05,23,7.40
2013,05,22,05,24,7.40
2013,05,22,05,25,7.40
2013,05,22,05,26,7.40
2013,05,22,05,27,7.40
2013,05,22,05,28,7.40
2013,05,22,05,29,7.40
2013,05,22,05,30,7.40
2013,05,22,05,31,7.40
2013,05,22,05,32,7.40
2013,05,22,05,33,7.40
2013,05,22,05,34,7.40
2013,05,22,05,35,7.40
2013,05,22,05,36,7.40
2013,05,22,05,37,7.40
2013,05,22,05,38,7.40
2013,05,22,05,39,7.40
2013,05,22,05,40,7.40
2013,05,22,05,41,7.40
2013,05,22,05,42,7.40
2013,05,22,05,43,7.40
2013,05,22,05,44,7.40
2013,05,22,05,45,7.40
2013,05,22,05,46,7.50
2013,05,22,05,47,7.50
2013,05,22,05,48,7.50
2013,05,22,05,49,7.50
2013,05,22,05,50,7.50
2013,05,22,05,51,7.50
2013,05,22,05,52,7.60
2013,05,22,05,53,7.60
2013,05,22,05,54,7.60
2013,05,22,05,55,7.60
2013,05,22,05,56,7.60
2013,05,22,05,57,7.60
2013,05,22,05,58,7.60
2013,05,22,05,59,7.60
2013,05,22,06,00,7.60
2013,05,22,06,01,7.60
2013,05,22,06,02,7.60
2013,05,22,06,03,7.60
2013,05,22,06,04,7.70
2013,05,22,06,05,7.70
2013,05,22,06,06,7.70
2013,05,22,06,07,7.70
2013,05,22,06,08,7.70
2013,05,22,06,09,7.70
2013,05,22,06,10,7.70
2013,05,22,06,11,7.70
2013,05,22,06,12,7.70
2013,05,22,06,13,7.70
2013,05,22,06,14,7.70
2013,05,22,06,15,7.70
2013,05,22,06,16,7.70
2013,05,22,06,17,7.70
2013,05,22,06,18,7.70
2013,05,22,06,19,7.70
2013,05,22,06,20,7.70
2013,05,22,06,21,7.70
2013,05,22,06,22,7.70
2013,05,22,06,23,7.70
2013,05,22,06,24,7.80
2013,05,22,06,25,7.80
2013,05,22,06,26,7.80
2013,05,22,06,27,7.80
2013,05,22,06,28,7.80
2013,05,22,06,29,7.80
2013,05,22,06,30,7.80
2013,05,22,06,31,7.80
2013,05,22,06,32,7.80
2013,05,22,06,33,7.80
2013,05,22,06,34,7.80
2013,05,22,06,35,7.80
2013,05,22,06,36,7.80
2013,05,22,06,37,7.80
2013,05,22,06,38,7.80
2013,05,22,06,39,7.80
2013,05,22,06,40,7.80
2013,05,22,06,41,7.80
2013,05,22,06,42,7.90
2013,05,22,06,43,7.90
2013,05,22,06,44,7.90
2013,05,22,06,45,7.90
2013,05,22,06,46,7.90
2013,05,22,06,47,7.90
2013,05,22,06,48,7.90
2013,05,22,06,49,7.90
2013,05,22,06,50,7.90
2013,05,22,06,51,7.90
2013,05,22,06,52,7.90
2013,05,22,06,53,7.90
2013,05,22,06,54,7.90
2013,05,22,06,55,7.90
2013,05,22,06,56,7.90
2013,05,22,06,57,7.90
2013,05,22,06,58,7.90
2013,05,22,06,59,7.90
2013,05,22,07,00,7.90
2013,05,22,07,01,7.90
2013,05,22,07,02,7.90
2013,05,22,07,03,7.90
2013,05,22,07,04,7.90
2013,05,22,07,05,7.90
2013,05,22,07,06,7.90
2013,05,22,07,07,7.90
2013,05,22,07,08,7.90
2013,05,22,07,09,7.90
2013,05,22,07,10,8.00
2013,05,22,07,11,8.00
2013,05,22,07,12,8.00
2013,05,22,07,13,8.10
2013,05,22,07,14,8.10
2013,05,22,07,15,8.10
2013,05,22,07,16,8.10
2013,05,22,07,17,8.10
2013,05,22,07,18,8.20
2013,05,22,07,19,8.20
2013,05,22,07,20,8.20
2013,05,22,07,21,8.20
2013,05,22,07,22,8.30
2013,05,22,07,23,8.20
2013,05,22,07,24,8.20
2013,05,22,07,25,8.20
2013,05,22,07,26,8.30
2013,05,22,07,27,8.30
2013,05,22,07,28,8.30
2013,05,22,07,29,8.30
2013,05,22,07,30,8.40
2013,05,22,07,31,8.40
2013,05,22,07,32,8.40
2013,05,22,07,33,8.40
2013,05,22,07,34,8.40
2013,05,22,07,35,8.40
2013,05,22,07,36,8.50
2013,05,22,07,37,8.50
2013,05,22,07,38,8.50
2013,05,22,07,39,8.50
2013,05,22,07,40,8.60
2013,05,22,07,41,8.60
2013,05,22,07,42,8.60
2013,05,22,07,43,8.60
2013,05,22,07,44,8.70
2013,05,22,07,45,8.70
2013,05,22,07,46,8.70
2013,05,22,07,47,8.70
2013,05,22,07,48,8.70
2013,05,22,07,49,8.80
2013,05,22,07,50,8.80
2013,05,22,07,51,8.80
2013,05,22,07,52,8.80
2013,05,22,07,53,8.90
2013,05,22,07,54,8.90
2013,05,22,07,55,8.90
2013,05,22,07,56,8.90
2013,05,22,07,57,8.90
2013,05,22,07,58,9.00
2013,05,22,07,59,9.00
2013,05,22,08,00,9.00
2013,05,22,08,01,9.10
2013,05,22,08,02,9.10
2013,05,22,08,03,9.10
2013,05,22,08,04,9.10
2013,05,22,08,05,9.20
2013,05,22,08,06,9.20
2013,05,22,08,07,9.20
2013,05,22,08,08,9.20
2013,05,22,08,09,9.20
2013,05,22,08,10,9.30
2013,05,22,08,11,9.30
2013,05,22,08,12,9.30
2013,05,22,08,13,9.30
2013,05,22,08,14,9.30
2013,05,22,08,15,9.30
2013,05,22,08,16,9.30
2013,05,22,08,17,9.30
2013,05,22,08,18,9.40
2013,05,22,08,19,9.40
2013,05,22,08,20,9.40
2013,05,22,08,21,9.40
2013,05,22,08,22,9.40
2013,05,22,08,23,9.40
2013,05,22,08,24,9.40
2013,05,22,08,25,9.40
2013,05,22,08,26,9.50
2013,05,22,08,27,9.50
2013,05,22,08,28,9.50
2013,05,22,08,29,9.50
2013,05,22,08,30,9.60
2013,05,22,08,31,9.60
2013,05,22,08,32,9.60
2013,05,22,08,33,9.70
2013,05,22,08,34,9.70
2013,05,22,08,35,9.70
2013,05,22,08,36,9.80
2013,05,22,08,37,9.80
2013,05,22,08,38,9.80
2013,05,22,08,39,9.80
2013,05,22,08,40,9.90
2013,05,22,08,41,9.90
2013,05,22,08,42,9.90
2013,05,22,08,43,9.90
2013,05,22,08,44,9.90
2013,05,22,08,45,10.00
2013,05,22,08,46,10.00
2013,05,22,08,47,10.00
2013,05,22,08,48,10.00
2013,05,22,08,49,10.00
2013,05,22,08,50,10.00
2013,05,22,08,51,10.00
2013,05,22,08,52,10.10
2013,05,22,08,53,10.10
2013,05,22,08,54,10.10
2013,05,22,08,55,10.10
2013,05,22,08,56,10.20
2013,05,22,08,57,10.20
2013,05,22,08,58,10.20
2013,05,22,08,59,10.30
2013,05,22,09,00,10.30
2013,05,22,09,01,10.30
2013,05,22,09,02,10.40
2013,05,22,09,03,10.40
2013,05,22,09,04,10.40
2013,05,22,09,05,10.50
2013,05,22,09,06,10.50
2013,05,22,09,07,10.60
2013,05,22,09,08,10.60
2013,05,22,09,09,10.60
2013,05,22,09,10,10.60
2013,05,22,09,11,10.60
2013,05,22,09,12,10.60
2013,05,22,09,13,10.70
2013,05,22,09,14,10.70
2013,05,22,09,15,10.70
2013,05,22,09,16,10.70
2013,05,22,09,17,10.70
2013,05,22,09,18,10.80
2013,05,22,09,19,10.80
2013,05,22,09,20,10.80
2013,05,22,09,21,10.80
2013,05,22,09,22,10.80
2013,05,22,09,23,10.90
2013,05,22,09,24,10.90
2013,05,22,09,25,10.90
2013,05,22,09,26,11.00
2013,05,22,09,27,11.00
2013,05,22,09,28,11.00
2013,05,22,09,29,11.00
2013,05,22,09,30,11.00
2013,05,22,09,31,11.00
2013,05,22,09,32,11.00
2013,05,22,09,33,11.00
2013,05,22,09,34,11.00
2013,05,22,09,35,11.00
2013,05,22,09,36,11.00
2013,05,22,09,37,11.00
2013,05,22,09,38,11.00
2013,05,22,09,39,10.90
2013,05,22,09,40,10.90
2013,05,22,09,41,10.90
2013,05,22,09,42,10.80
2013,05,22,09,43,10.80
2013,05,22,09,44,10.90
2013,05,22,09,45,10.90
2013,05,22,09,46,10.90
2013,05,22,09,47,10.90
2013,05,22,09,48,10.90
2013,05,22,09,49,10.90
2013,05,22,09,50,10.90
2013,05,22,09,51,11.00
2013,05,22,09,52,11.00
2013,05,22,09,53,11.10
2013,05,22,09,54,11.10
2013,05,22,09,55,11.10
2013,05,22,09,56,11.10
2013,05,22,09,57,11.10
2013,05,22,09,58,11.10
2013,05,22,09,59,11.10
2013,05,22,10,00,11.10
2013,05,22,10,01,11.00
2013,05,22,10,02,11.00
2013,05,22,10,03,11.00
2013,05,22,10,04,11.00
2013,05,22,10,05,10.90
2013,05,22,10,06,10.90
2013,05,22,10,07,10.90
2013,05,22,10,08,10.90
2013,05,22,10,09,10.90
2013,05,22,10,10,11.00
2013,05,22,10,11,11.00
2013,05,22,10,12,11.00
2013,05,22,10,13,11.10
2013,05,22,10,14,11.10
2013,05,22,10,15,11.10
2013,05,22,10,16,11.10
2013,05,22,10,17,11.10
2013,05,22,10,18,11.10
2013,05,22,10,19,11.20
2013,05,22,10,20,11.20
2013,05,22,10,21,11.20
2013,05,22,10,22,11.20
2013,05,22,10,23,11.20
2013,05,22,10,24,11.20
2013,05,22,10,25,11.30
2013,05,22,10,26,11.30
2013,05,22,10,27,11.30
2013,05,22,10,28,11.30
2013,05,22,10,29,11.30
2013,05,22,10,30,11.30
2013,05,22,10,31,11.30
2013,05,22,10,32,11.30
2013,05,22,10,33,11.30
2013,05,22,10,34,11.40
2013,05,22,10,35,11.40
2013,05,22,10,36,11.40
2013,05,22,10,37,11.40
2013,05,22,10,38,11.40
2013,05,22,10,39,11.40
2013,05,22,10,40,11.40
2013,05,22,10,41,11.40
2013,05,22,10,42,11.40
2013,05,22,10,43,11.30
2013,05,22,10,44,11.30
2013,05,22,10,45,11.30
2013,05,22,10,46,11.30
2013,05,22,10,47,11.30
2013,05,22,10,48,11.30
2013,05,22,10,49,11.40
2013,05,22,10,50,11.40
2013,05,22,10,51,11.40
2013,05,22,10,52,11.40
2013,05,22,10,53,11.50
2013,05,22,10,54,11.50
2013,05,22,10,55,11.50
2013,05,22,10,56,11.50
2013,05,22,10,57,11.60
2013,05,22,10,58,11.60
2013,05,22,10,59,11.60
2013,05,22,11,00,11.50
2013,05,22,11,01,11.50
2013,05,22,11,02,11.50
2013,05,22,11,03,11.50
2013,05,22,11,04,11.50
2013,05,22,11,05,11.40
2013,05,22,11,06,11.40
2013,05,22,11,07,11.40
2013,05,22,11,08,11.40
2013,05,22,11,09,11.40
2013,05,22,11,10,11.40
2013,05,22,11,11,11.40
2013,05,22,11,12,11.40
2013,05,22,11,13,11.40
2013,05,22,11,14,11.40
2013,05,22,11,15,11.50
2013,05,22,11,16,11.50
2013,05,22,11,17,11.60
2013,05,22,11,18,11.60
2013,05,22,11,19,11.60
2013,05,22,11,20,11.60
2013,05,22,11,21,11.70
2013,05,22,11,22,11.90
2013,05,22,11,23,12.00
2013,05,22,11,24,12.10
2013,05,22,11,25,12.10
2013,05,22,11,26,12.20
2013,05,22,11,27,12.20
2013,05,22,11,28,12.20
2013,05,22,11,29,12.30
2013,05,22,11,30,12.40
2013,05,22,11,31,12.40
2013,05,22,11,32,12.50
2013,05,22,11,33,12.50
2013,05,22,11,34,12.50
2013,05,22,11,35,12.50
2013,05,22,11,36,12.40
2013,05,22,11,37,12.40
2013,05,22,11,38,12.40
2013,05,22,11,39,12.30
2013,05,22,11,40,12.30
2013,05,22,11,41,12.30
2013,05,22,11,42,12.20
2013,05,22,11,43,12.10
2013,05,22,11,44,12.10
2013,05,22,11,45,12.00
2013,05,22,11,46,11.90
2013,05,22,11,47,11.90
2013,05,22,11,48,11.90
2013,05,22,11,49,11.80
2013,05,22,11,50,11.80
2013,05,22,11,51,11.80
2013,05,22,11,52,11.80
2013,05,22,11,53,11.70
2013,05,22,11,54,11.60
2013,05,22,11,55,11.60
2013,05,22,11,56,11.60
2013,05,22,11,57,11.70
2013,05,22,11,58,11.70
2013,05,22,11,59,11.60
2013,05,22,12,00,11.60
2013,05,22,12,01,11.60
2013,05,22,12,02,11.70
2013,05,22,12,03,11.70
2013,05,22,12,04,11.70
2013,05,22,12,05,11.80
2013,05,22,12,06,11.80
2013,05,22,12,07,11.80
2013,05,22,12,08,11.70
2013,05,22,12,09,11.70
2013,05,22,12,10,11.80
2013,05,22,12,11,11.80
2013,05,22,12,12,11.80
2013,05,22,12,13,11.80
2013,05,22,12,14,11.80
2013,05,22,12,15,11.80
2013,05,22,12,16,11.80
2013,05,22,12,17,11.80
2013,05,22,12,18,11.80
2013,05,22,12,19,11.80
2013,05,22,12,20,11.80
2013,05,22,12,21,11.80
2013,05,22,12,22,11.80
2013,05,22,12,23,11.80
2013,05,22,12,24,11.80
2013,05,22,12,25,11.80
2013,05,22,12,26,11.80
2013,05,22,12,27,11.80
2013,05,22,12,28,11.70
2013,05,22,12,29,11.70
2013,05,22,12,30,11.70
2013,05,22,12,31,11.70
2013,05,22,12,32,11.70
2013,05,22,12,33,11.70
2013,05,22,12,34,11.60
2013,05,22,12,35,11.60
2013,05,22,12,36,11.50
2013,05,22,12,37,11.50
2013,05,22,12,38,11.50
2013,05,22,12,39,11.40
2013,05,22,12,40,11.40
2013,05,22,12,41,11.40
2013,05,22,12,42,11.30
2013,05,22,12,43,11.30
2013,05,22,12,44,11.30
2013,05,22,12,45,11.30
2013,05,22,12,46,11.30
2013,05,22,12,47,11.30
2013,05,22,12,48,11.40
2013,05,22,12,49,11.40
2013,05,22,12,50,11.40
2013,05,22,12,51,11.40
2013,05,22,12,52,11.40
2013,05,22,12,53,11.50
2013,05,22,12,54,11.50
2013,05,22,12,55,11.50
2013,05,22,12,56,11.60
2013,05,22,12,57,11.60
2013,05,22,12,58,11.70
2013,05,22,12,59,11.70
2013,05,22,13,00,11.70
2013,05,22,13,01,11.60
2013,05,22,13,02,11.60
2013,05,22,13,03,11.60
2013,05,22,13,04,11.60
2013,05,22,13,05,11.60
2013,05,22,13,06,11.60
2013,05,22,13,07,11.60
2013,05,22,13,08,11.50
2013,05,22,13,09,11.40
2013,05,22,13,10,11.40
2013,05,22,13,11,11.40
2013,05,22,13,12,11.40
2013,05,22,13,13,11.30
2013,05,22,13,14,11.30
2013,05,22,13,15,11.40
2013,05,22,13,16,11.40
2013,05,22,13,17,11.40
2013,05,22,13,18,11.50
2013,05,22,13,19,11.50
2013,05,22,13,20,11.50
2013,05,22,13,21,11.60
2013,05,22,13,22,11.70
2013,05,22,13,23,11.70
2013,05,22,13,24,11.70
2013,05,22,13,25,11.60
2013,05,22,13,26,11.60
2013,05,22,13,27,11.70
2013,05,22,13,28,11.70
2013,05,22,13,29,11.80
2013,05,22,13,30,11.80
2013,05,22,13,31,12.00
2013,05,22,13,32,12.10
2013,05,22,13,33,12.20
2013,05,22,13,34,12.20
2013,05,22,13,35,12.30
2013,05,22,13,36,12.30
2013,05,22,13,37,12.40
2013,05,22,13,38,12.50
2013,05,22,13,39,12.60
2013,05,22,13,40,12.60
2013,05,22,13,41,12.60
2013,05,22,13,42,12.60
2013,05,22,13,43,12.70
2013,05,22,13,44,12.80
2013,05,22,13,45,12.80
2013,05,22,13,46,12.80
2013,05,22,13,47,12.80
2013,05,22,13,48,12.90
2013,05,22,13,49,13.00
2013,05,22,13,50,13.10
2013,05,22,13,51,13.10
2013,05,22,13,52,13.10
2013,05,22,13,53,13.10
2013,05,22,13,54,13.20
2013,05,22,13,55,13.10
2013,05,22,13,56,13.00
2013,05,22,13,57,12.90
2013,05,22,13,58,12.80
2013,05,22,13,59,12.80
2013,05,22,14,00,12.90
2013,05,22,14,01,13.00
2013,05,22,14,02,13.10
2013,05,22,14,03,13.20
2013,05,22,14,04,13.30
2013,05,22,14,05,13.50
2013,05,22,14,06,13.60
2013,05,22,14,07,13.50
2013,05,22,14,08,13.50
2013,05,22,14,09,13.60
2013,05,22,14,10,13.70
2013,05,22,14,11,13.70
2013,05,22,14,12,13.80
2013,05,22,14,13,13.80
2013,05,22,14,14,13.70
2013,05,22,14,15,13.70
2013,05,22,14,16,13.70
2013,05,22,14,17,13.70
2013,05,22,14,18,13.80
2013,05,22,14,19,13.70
2013,05,22,14,20,13.70
2013,05,22,14,21,13.60
2013,05,22,14,22,13.50
2013,05,22,14,23,13.40
2013,05,22,14,24,13.50
2013,05,22,14,25,13.50
2013,05,22,14,26,13.40
2013,05,22,14,27,13.30
2013,05,22,14,28,13.20
2013,05,22,14,29,13.20
2013,05,22,14,30,13.20
2013,05,22,14,31,13.20
2013,05,22,14,32,13.20
2013,05,22,14,33,13.20
2013,05,22,14,34,13.30
2013,05,22,14,35,13.30
2013,05,22,14,36,13.30
2013,05,22,14,37,13.20
2013,05,22,14,38,13.20
2013,05,22,14,39,13.00
2013,05,22,14,40,12.90
2013,05,22,14,41,12.90
2013,05,22,14,42,12.90
2013,05,22,14,43,12.90
2013,05,22,14,44,12.90
2013,05,22,14,45,12.80
2013,05,22,14,46,12.80
2013,05,22,14,47,12.70
2013,05,22,14,48,12.70
2013,05,22,14,49,12.70
2013,05,22,14,50,12.70
2013,05,22,14,51,12.70
2013,05,22,14,52,12.70
2013,05,22,14,53,12.70
2013,05,22,14,54,12.70
2013,05,22,14,55,12.70
2013,05,22,14,56,12.70
2013,05,22,14,57,12.80
2013,05,22,14,58,12.80
2013,05,22,14,59,12.80
2013,05,22,15,00,12.70
2013,05,22,15,01,12.70
2013,05,22,15,02,12.70
2013,05,22,15,03,12.70
2013,05,22,15,04,12.60
2013,05,22,15,05,12.60
2013,05,22,15,06,12.60
2013,05,22,15,07,12.60
2013,05,22,15,08,12.60
2013,05,22,15,09,12.50
2013,05,22,15,10,12.50
2013,05,22,15,11,12.50
2013,05,22,15,12,12.50
2013,05,22,15,13,12.40
2013,05,22,15,14,12.40
2013,05,22,15,15,12.40
2013,05,22,15,16,12.40
2013,05,22,15,17,12.30
2013,05,22,15,18,12.30
2013,05,22,15,19,12.30
2013,05,22,15,20,12.30
2013,05,22,15,21,12.10
2013,05,22,15,22,12.00
2013,05,22,15,23,12.00
2013,05,22,15,24,12.00
2013,05,22,15,25,12.00
2013,05,22,15,26,12.00
2013,05,22,15,27,12.00
2013,05,22,15,28,12.10
2013,05,22,15,29,12.20
2013,05,22,15,30,12.20
2013,05,22,15,31,12.20
2013,05,22,15,32,12.20
2013,05,22,15,33,12.20
2013,05,22,15,34,12.20
2013,05,22,15,35,12.20
2013,05,22,15,36,12.30
2013,05,22,15,37,12.40
2013,05,22,15,38,12.60
2013,05,22,15,39,12.80
2013,05,22,15,40,12.90
2013,05,22,15,41,13.10
2013,05,22,15,42,13.20
2013,05,22,15,43,13.20
2013,05,22,15,44,13.20
2013,05,22,15,45,13.20
2013,05,22,15,46,13.20
2013,05,22,15,47,13.10
2013,05,22,15,48,13.00
2013,05,22,15,49,13.00
2013,05,22,15,50,13.00
2013,05,22,15,51,12.90
2013,05,22,15,52,13.00
2013,05,22,15,53,13.00
2013,05,22,15,54,13.10
2013,05,22,15,55,13.10
2013,05,22,15,56,13.10
2013,05,22,15,57,13.10
2013,05,22,15,58,13.10
2013,05,22,15,59,13.20
2013,05,22,16,00,13.10
2013,05,22,16,01,13.10
2013,05,22,16,02,13.10
2013,05,22,16,03,13.10
2013,05,22,16,04,13.10
2013,05,22,16,05,13.10
2013,05,22,16,06,13.20
2013,05,22,16,07,13.10
2013,05,22,16,08,13.20
2013,05,22,16,09,13.10
2013,05,22,16,10,13.00
2013,05,22,16,11,12.90
2013,05,22,16,12,12.90
2013,05,22,16,13,12.80
2013,05,22,16,14,12.80
2013,05,22,16,15,12.70
2013,05,22,16,16,12.60
2013,05,22,16,17,12.60
2013,05,22,16,18,12.50
2013,05,22,16,19,12.50
2013,05,22,16,20,12.60
2013,05,22,16,21,12.50
2013,05,22,16,22,12.50
2013,05,22,16,23,12.60
2013,05,22,16,24,12.60
2013,05,22,16,25,12.50
2013,05,22,16,26,12.50
2013,05,22,16,27,12.40
2013,05,22,16,28,12.40
2013,05,22,16,29,12.40
2013,05,22,16,30,12.40
2013,05,22,16,31,12.40
2013,05,22,16,32,12.40
2013,05,22,16,33,12.40
2013,05,22,16,34,12.40
2013,05,22,16,35,12.40
2013,05,22,16,36,12.50
2013,05,22,16,37,12.50
2013,05,22,16,38,12.50
2013,05,22,16,39,12.50
2013,05,22,16,40,12.50
2013,05,22,16,41,12.50
2013,05,22,16,42,12.40
2013,05,22,16,43,12.40
2013,05,22,16,44,12.40
2013,05,22,16,45,12.40
2013,05,22,16,46,12.40
2013,05,22,16,47,12.40
2013,05,22,16,48,12.40
2013,05,22,16,49,12.50
2013,05,22,16,50,12.60
2013,05,22,16,51,12.70
2013,05,22,16,52,12.90
2013,05,22,16,53,13.00
2013,05,22,16,54,13.10
2013,05,22,16,55,13.20
2013,05,22,16,56,13.20
2013,05,22,16,57,13.30
2013,05,22,16,58,13.30
2013,05,22,16,59,13.20
2013,05,22,17,00,13.20
2013,05,22,17,01,13.20
2013,05,22,17,02,13.20
2013,05,22,17,03,13.20
2013,05,22,17,04,13.10
2013,05,22,17,05,13.20
2013,05,22,17,06,13.10
2013,05,22,17,07,13.00
2013,05,22,17,08,12.90
2013,05,22,17,09,12.90
2013,05,22,17,10,12.90
2013,05,22,17,11,12.70
2013,05,22,17,12,12.60
2013,05,22,17,13,12.50
2013,05,22,17,14,12.40
2013,05,22,17,15,12.30
2013,05,22,17,16,12.30
2013,05,22,17,17,12.20
2013,05,22,17,18,12.20
2013,05,22,17,19,12.20
2013,05,22,17,20,12.20
2013,05,22,17,21,12.20
2013,05,22,17,22,12.10
2013,05,22,17,23,12.10
2013,05,22,17,24,12.00
2013,05,22,17,25,12.00
2013,05,22,17,26,11.90
2013,05,22,17,27,11.90
2013,05,22,17,28,11.90
2013,05,22,17,29,11.80
2013,05,22,17,30,11.80
2013,05,22,17,31,11.70
2013,05,22,17,32,11.70
2013,05,22,17,33,11.70
2013,05,22,17,34,11.70
2013,05,22,17,35,11.70
2013,05,22,17,36,11.70
2013,05,22,17,37,11.70
2013,05,22,17,38,11.70
2013,05,22,17,39,11.70
2013,05,22,17,40,11.70
2013,05,22,17,41,11.70
2013,05,22,17,42,11.80